Weather History for Smyrna, TN

Change the Weather History Date:

Sunday, August 26, 2012

  Actual Average Record
Temperature  
Mean Temperature 77 °F -  
Max Temperature 92 °F 85 °F 99 °F (2007)
Min Temperature 64 °F 67 °F 61 °F (2013)
Cooling Degree Days 12    
Growing Degree Days 27 (Base 50)    
Moisture  
Dew Point 67 °F    
Average Humidity 85    
Maximum Humidity 100    
Minimum Humidity 42    
Precipitation  
Precipitation 0.00 in - - ()
Sea Level Pressure  
Sea Level Pressure 30.11 in    
Wind  
Wind Speed 1 mph (SSW)    
Max Wind Speed 9 mph    
Max Gust Speed -    
Visibility 5 miles    
Events Fog    
Averages and records for this station are not official NWS values.
T = Trace of Precipitation, MM = Missing Value Source: NWS Daily Summary

Daily Weather History Graph

Daily Weather History Graph

Search for Another Location

Airport:

Trip Planner

Search our weather history database for the weather conditions in past years. The results will help you decide how hot, cold, wet, or windy it might be!

Date:

Astronomy

Aug. 26, 2012 Rise Set
Actual Time 6:13 AM CDT 7:21 PM CDT
Civil Twilight 5:47 AM CDT 7:47 PM CDT
Nautical Twilight 5:15 AM CDT 8:19 PM CDT
Astronomical Twilight 4:42 AM CDT 8:51 PM CDT
Moon 3:45 PM CDT (8/26) 1:00 AM CDT (8/26)
Length of Visible Light 14h 00m
Length of Day
13h 07m
Waxing Gibbous, 73% of the Moon is Illuminated
Aug 26
Waxing Gibbous
Aug 31
Full
Sep 8
Last Quarter
Sep 15
New
Sep 22
First Quarter

Hourly Weather History & Observations

Time (CDT) Temp. Heat Index Dew Point Humidity Pressure Visibility Wind Dir Wind Speed Gust Speed Precip Events Conditions
12:56 AM 68.9 °F - 68.9 °F 100% 30.09 in 4.0 mi Calm Calm - N/A   Clear
1:56 AM 68.0 °F - 68.0 °F 100% 30.09 in 2.5 mi Calm Calm - N/A   Clear
2:07 AM 68.0 °F - 68.0 °F 100% 30.12 in 5.0 mi Calm Calm - N/A   Clear
2:46 AM 68.0 °F - 68.0 °F 100% 30.12 in 1.8 mi Calm Calm - N/A   Clear
2:56 AM 68.0 °F - 68.0 °F 100% 30.09 in 2.0 mi Calm Calm - N/A   Clear
2:59 AM 66.2 °F - 66.2 °F 100% 30.12 in 1.0 mi Calm Calm - N/A   Clear
3:02 AM 66.2 °F - 66.2 °F 100% 30.12 in 0.5 mi Calm Calm - N/A Fog Fog
3:17 AM 66.2 °F - 66.2 °F 100% 30.12 in 1.2 mi Calm Calm - N/A   Clear
3:38 AM 66.2 °F - 66.2 °F 100% 30.12 in 0.5 mi Calm Calm - N/A Fog Fog
3:45 AM 66.2 °F - 66.2 °F 100% 30.12 in 1.0 mi Calm Calm - N/A   Clear
3:48 AM 66.2 °F - 66.2 °F 100% 30.12 in 2.0 mi Calm Calm - N/A   Clear
4:05 AM 64.4 °F - 64.4 °F 100% 30.12 in 1.2 mi Calm Calm - N/A   Clear
4:18 AM 66.2 °F - 66.2 °F 100% 30.12 in 1.0 mi Calm Calm - N/A   Clear
4:20 AM 66.2 °F - 66.2 °F 100% 30.12 in 1.8 mi Calm Calm - N/A   Clear
4:39 AM 66.2 °F - 66.2 °F 100% 30.13 in 3.0 mi Calm Calm - N/A   Clear
4:56 AM 66.9 °F - 66.9 °F 100% 30.11 in 6.0 mi Calm Calm - N/A   Clear
5:56 AM 65.8 °F - 65.8 °F 100% 30.13 in 3.0 mi Calm Calm - N/A   Clear
6:06 AM 66.2 °F - 66.2 °F 100% 30.16 in 1.5 mi Calm Calm - N/A   Clear
6:11 AM 66.2 °F - 66.2 °F 100% 30.16 in 1.0 mi Calm Calm - N/A   Clear
6:18 AM 66.2 °F - 66.2 °F 100% 30.16 in 1.5 mi Calm Calm - N/A   Clear
6:23 AM 66.2 °F - 66.2 °F 100% 30.16 in 3.0 mi Calm Calm - N/A   Clear
6:30 AM 66.2 °F - 66.2 °F 100% 30.16 in 1.5 mi Calm Calm - N/A   Clear
6:32 AM 66.2 °F - 66.2 °F 100% 30.16 in 1.0 mi Calm Calm - N/A   Clear
6:40 AM 66.2 °F - 66.2 °F 100% 30.17 in 0.8 mi Calm Calm - N/A   Clear
6:44 AM 66.2 °F - 66.2 °F 100% 30.17 in 1.2 mi Calm Calm - N/A   Clear
6:56 AM 65.8 °F - 65.8 °F 100% 30.15 in 4.0 mi Calm Calm - N/A   Clear
7:56 AM 70.0 °F - 68.9 °F 96% 30.16 in 5.0 mi SSE 3.5 mph - N/A   Clear
8:56 AM 75.9 °F - 70.0 °F 82% 30.17 in 10.0 mi SE 4.6 mph - 0.00 in   Clear
10:56 AM 86.0 °F 89.7 °F 68.9 °F 56% 30.15 in 10.0 mi SW 6.9 mph - N/A   Clear
11:56 AM 88.9 °F 91.8 °F 66.9 °F 48% 30.14 in 10.0 mi WSW 8.1 mph - N/A   Clear
12:56 PM 88.9 °F 90.7 °F 64.9 °F 45% 30.12 in 10.0 mi Calm Calm - N/A   Scattered Clouds
1:56 PM 90.9 °F 93.1 °F 65.8 °F 43% 30.10 in 10.0 mi North 5.8 mph - N/A   Partly Cloudy
2:56 PM 90.9 °F 92.7 °F 64.9 °F 42% 30.08 in 10.0 mi Variable 3.5 mph - N/A   Mostly Cloudy
3:56 PM 90.0 °F 92.8 °F 66.9 °F 46% 30.06 in 10.0 mi NNW 4.6 mph - N/A   Overcast
4:56 PM 90.9 °F 93.1 °F 65.8 °F 43% 30.04 in 10.0 mi South 9.2 mph - N/A   Scattered Clouds
5:56 PM 88.9 °F 90.7 °F 64.9 °F 45% 30.03 in 10.0 mi SSW 5.8 mph - N/A   Clear
6:56 PM 86.0 °F 87.6 °F 64.9 °F 49% 30.02 in 10.0 mi South 3.5 mph - N/A   Clear
7:56 PM 79.9 °F - 66.9 °F 64% 30.04 in 10.0 mi Calm Calm - N/A   Clear
8:56 PM 75.9 °F - 66.9 °F 74% 30.06 in 10.0 mi Calm Calm - N/A   Clear
9:56 PM 73.9 °F - 68.0 °F 82% 30.07 in 10.0 mi Calm Calm - N/A   Clear
10:56 PM 72.9 °F - 68.0 °F 85% 30.07 in 10.0 mi Calm Calm - N/A   Clear
11:56 PM 72.0 °F - 68.0 °F 87% 30.07 in 10.0 mi Calm Calm - N/A   Clear